www.pogodaiklimat.ru

Погода и климат >> Архив погоды >> Словения >> Церки-об-Крки


ПОГОДА в Церки-об-Крки

  • Прогноз погоды в Церки-об-Крки
  • Монитор погоды в Церки-об-Крки

АРХИВ ПОГОДЫ в Церки-об-Крки

Время (UTC), дата Ветер
(напр.,м/с)
 
Видим.   Явления Облачность Т
(С)
Тd
(С)
f
(%)
Тe
(С)
Тes
(С)
Комфортность P
(гПа)
Po
(гПа)
Тmin
(С)
Tmax
(С)
R
(мм)
R24
(мм)
S
(см)
04 15.09 Ю 1
{2}
600 м туман ясно +13.3 +13.2 99 +13 +13 1028.3 1008.8
05 15.09 З 1
{1}
200 м туман ясно +13.2 +13.1 99 +13 +13 1028.4 1008.9
06 15.09 штиль 0
{2}
100 м туман ?/? +13.6 +13.5 99 +13 +13 1028.6 1009.1 +12.8
07 15.09 З 1
{2}
20 км в посл. час туман 3/3 30 м
[St Ci fib]
+15.6 +14.5 93 +16 +19 1028.4 1009.1
08 15.09 З 1
{3}
50 км 1/1 400 м
[Cu hum Ci fib]
+17.9 +14.7 82 +19 +25 1028.0 1008.8
09 15.09 ЮЗ 1
{2}
30 км н/о +20.2 +14.1 68 +24 +24 комфорт 1027.4 1008.4
10 15.09 ЮЗ 1
{3}
50 км 1/1 900 м
[Cu hum]
+22.1 +14.4 62 +25 +36 комфорт 1026.8 1007.9
11 15.09 штиль 0
{2}
50 км 1/1 900 м
[Cu hum]
+23.0 +14.2 58 +27 +40 душно 1025.9 1007.1
12 15.09 штиль 0
{3}
50 км 1/1 1000 м
[Cu hum]
+24.2 +15.1 57 +27 +40 жарко 1024.8 1006.1
13 15.09 В 1
{4}
50 км 1/1 1000 м
[Cu hum]
+24.7 +15.4 56 +28 +37 душно 1023.9 1005.3
14 15.09 СВ 1
{3}
35 км н/о +25.6 +15.4 53 +29 +29 душно 1023.0 1004.4
15 15.09 В 1
{3}
35 км н/о +25.6 +15.0 52 +28 +28 жарко 1022.5 1003.9
16 15.09 штиль 0
{2}
35 км н/о +25.6 +14.4 50 +28 +28 жарко 1022.1 1003.5
17 15.09 Ю 2
{3}
40 км н/о +21.7 +16.4 72 +26 +26 душно 1021.9 1003.1
18 15.09 штиль 0
{2}
40 км 1/0
[Ci fib]
+18.3 +15.6 84 +19 +19 1022.1 1003.1 +26.1
19 15.09 З 1
{1}
40 км ясно +16.3 +14.9 91 +17 +17 1022.3 1003.1
20 15.09 ЮЗ 1
{1}
40 км ясно +15.5 +14.7 95 +16 +16 1022.4 1003.2
21 15.09 З 1
{1}
3200 м дымка н/о +14.8 +14.3 97 +15 +15 1022.4 1003.1
22 15.09 З 1
{1}
6000 м дымка н/о +14.1 +13.5 96 +14 +14 1022.1 1002.8
23 15.09 Ю 1
{1}
13 км н/о +13.9 +13.5 97 +14 +14 1021.8 1002.5
00 16.09 З 1
{2}
500 м туман н/о +13.1 +12.8 98 +13 +13 1021.6 1002.2
01 16.09 З 2
{2}
3700 м в посл. час туман н/о +12.9 +12.7 99 +12 +12 1021.2 1001.8
02 16.09 Ю 1
{2}
4000 м в посл. час туман н/о +12.4 +12.0 97 +12 +12 1020.8 1001.4
03 16.09 Ю 1
{1}
9000 м туман н/о +12.1 +11.7 97 +12 +12 1020.6 1001.2
04 16.09 З 1
{2}
15 км местами туман поземный ясно +12.4 +12.3 99 +12 +12 1020.4 1001.0
05 16.09 ЮЗ 1
{1}
400 м туман ?/? +11.6 +11.5 99 +11 +11 1020.7 1001.2
06 16.09 ЮЗ 1
{2}
300 м туман ясно +13.2 +13.0 99 +13 +14 1020.7 1001.4 +11.4
07 16.09 Ю 1
{2}
6000 м в посл. час туман 1/1 30 м
[St]
+15.8 +15.0 95 +16 +20 1020.8 1001.6
08 16.09 СЗ 2
{3}
30 км ясно +19.2 +16.4 84 +21 +27 комфорт 1020.2 1001.3
09 16.09 З 1
{4}
30 км ясно +21.7 +17.1 75 +26 +36 душно 1019.7 1001.0
10 16.09 ЮЗ 1
{3}
40 км ясно +24.2 +17.2 65 +28 +40 душно 1019.2 1000.6
11 16.09 СЗ 1
{2}
40 км 1/1 900 м
[Cu hum]
+25.4 +17.4 61 +29 +41 душно 1018.5 1000.0
12 16.09 СВ 1
{2}
40 км 1/1 1000 м
[Cu hum Ci fib]
+26.6 +18.5 61 +31 +42 душно 1017.4 999.0
13 16.09 СВ 2
{6}
40 км 1/1 1080 м
[Cu hum Ci fib]
+26.8 +18.9 62 +32 +39 очень
душно
1016.9 998.5
14 16.09 СВ 1
{4}
28 км н/о +27.6 +19.0 59 +33 +33 очень
душно
1015.9 997.6
15 16.09 В 2
{3}
30 км н/о +27.2 +18.8 60 +32 +32 очень
душно
1015.4 997.1
16 16.09 В 2
{4}
30 км н/о +25.9 +18.9 65 +31 +31 очень
душно
1015.1 996.7
17 16.09 В 2
{2}
35 км н/о +23.9 +18.7 73 +29 +29 душно 1015.0 996.5
18 16.09 ЮЗ 1
{1}
40 км 1/0
[Ac trans]
+21.4 +19.3 88 +26 +26 душно 1015.3 996.6 +27.7
19 16.09 З 1
{2}
20 км 1/0
[Ac trans]
+19.3 +18.2 93 +22 +22 комфорт 1015.8 997.0
20 16.09 З 1
{2}
20 км 1/0
[Ci fib]
+18.7 +18.0 96 +21 +21 комфорт 1016.0 997.1
21 16.09 СЗ 2
{3}
7000 м дымка н/о +18.0 +17.4 96 +19 +19 1016.1 997.2
22 16.09 ЮЗ 2
{2}
6000 м дымка н/о +17.2 +16.5 96 +18 +18 1015.7 996.7
23 16.09 Ю 1
{2}
300 м туман н/о +16.4 +16.2 99 +17 +17 1015.7 996.7
00 17.09 З 2
{3}
2400 м в посл. час туман н/о +16.4 +16.2 99 +16 +16 1015.4 996.4
01 17.09 З 3
{4}
5000 м в посл. час туман н/о +16.4 +16.1 98 +16 +16 1015.2 996.2
02 17.09 З 1
{3}
6000 м в посл. час туман н/о +16.0 +15.7 98 +17 +17 1015.2 996.2
03 17.09 Ю 1
{2}
6000 м дымка н/о +15.9 +15.6 98 +17 +17 1015.4 996.4
04 17.09 ЮЗ 2
{2}
20 км 3/0
[Ac trans Cc]
+15.4 +15.0 97 +15 +15 1015.3 996.2
05 17.09 С 1
{2}
30 км местами туман поземный 4/0
[Ac As Cc]
+15.0 +14.5 97 +15 +15 1015.5 996.4
06 17.09 ЮЗ 1
{2}
30 км 5/0
[Ac As Cc]
+15.9 +15.5 97 +17 +17 1015.9 996.8 +14.8
07 17.09 ЮЗ 2
{3}
30 км 1/1 180 м
[St Ac trans Ci fib]
+17.9 +16.7 93 +18 +21 1015.6 996.7
08 17.09 З 3
{4}
30 км 3/1 450 м
[Cu hum Ac trans Ci sp]
+20.9 +17.5 81 +25 +29 комфорт 1015.4 996.7
09 17.09 ЮЗ 2
{5}
30 км 3/1 700 м
[Cu hum Ac trans Ci sp]
+23.5 +17.9 71 +28 +34 душно 1014.9 996.4
10 17.09 З 3
{5}
30 км 1/1 800 м
[Cu hum Ac trans Ci sp]
+24.8 996.0
11 17.09 З 3 30 км 4/4 900 м
[Cu Sc]
+25.6 +17.7 62 +30 +35 душно 1014.1 995.7
12 17.09 З 3
{5}
30 км 3/3 900 м
[Cu Sc Ci fib]
+26.1 +18.5 63 +31 +37 очень
душно
1013.3 995.0
13 17.09 С 1 30 км 3/3 900 м
[Cu Sc]
+27.7 +17.9 55 +32 +39 очень
душно
1012.6 994.4
14 17.09 ЮЗ 3
{5}
30 км н/о +27.5 +18.3 57 +32 +32 очень
душно
1012.0 993.8
15 17.09 ЮЗ 1
{2}
30 км н/о +26.7 +18.3 60 +31 +31 душно 1011.8 993.5
16 17.09 ЮЗ 2
{4}
30 км н/о +26.3 +18.6 63 +31 +31 душно 1011.7 993.4
17 17.09 Ю 1
{2}
30 км н/о +23.6 +19.3 77 +29 +29 душно 1012.0 993.5
18 17.09 З 1
{2}
30 км 3/0
[Ac trans Ci sp]
+20.8 +18.5 87 +26 +26 душно 1012.4 993.7 +28.2
19 17.09 ЮЗ 3
{4}
14 км н/о +19.3 +17.4 89 +21 +21 комфорт 1013.2 994.4
20 17.09 З 1
{4}
20 км 3/0
[Ci sp]
+18.7 +17.0 90 +21 +21 комфорт 1013.5 994.7
21 17.09 ЮЗ 2
{3}
14 км н/о +19.1 +17.3 89 +21 +21 комфорт 1013.9 995.1
22 17.09 СВ 2
{3}
12 км н/о +19.3 +17.2 88 +22 +22 комфорт 1014.4 995.6
23 17.09 СВ 2
{5}
30 км н/о +19.3 +17.0 87 +22 +22 комфорт 1014.6 995.8
00 18.09 В 3
{6}
30 км н/о +18.7 +17.0 90 +20 +20 1015.0 996.2
01 18.09 ЮВ 4
{5}
35 км н/о +18.4 +16.6 89 +19 +19 1015.3 996.4
02 18.09 СВ 3
{5}
30 км н/о +18.4 +16.6 89 +19 +19 1016.0 997.1
03 18.09 В 5
{8}
40 км н/о +18.2 +13.9 76 +18 +18 1016.8 997.9
04 18.09 В 5
{7}
40 км 10/10 600 м
[Sc]
+17.7 +14.4 81 +17 +17 1017.8 998.8
05 18.09 В 4 40 км 10/10 600 м
[Sc]
+17.1 +10.5 65 +17 +17 1019.1 1000.0
06 18.09 В 5
{9}
40 км 10/10 600 м
[Sc]
+16.4 +9.6 64 +16 +16 1020.2 1001.1 +16.4
07 18.09 В 5 25 км слаб. дождь 10/10 600 м
[Sc]
+14.6 +10.7 77 +13 +13 1021.8 1002.5
08 18.09 В 4 15 км слаб. дождь 10/10 600 м
[Sc]
+14.0 +10.7 80 +13 +13 1023.2 1003.8
09 18.09 В 4
{6}
15 км слаб. дождь 10/10 600 м
[Sc]
+13.4 +10.8 84 +12 +12 1023.9 1004.5
10 18.09 30 км в посл. час дождь н/о +13.1 +10.7 85 +11 +12 1024.3 1004.9
11 18.09 В 3 20 км слаб. морось 10/10 600 м
[Sc]
+13.2 +9.9 80 +12 +12 1024.2 1004.8
12 18.09 СВ 2
{5}
20 км в посл. час морось {дождь} 10/10 600 м
[Sc]
+13.5 +9.9 79 +13 +13 1024.0 1004.6 1
13 18.09 СВ 3 30 км 10/10 600 м
[Sc]
+13.1 +9.6 79 +12 +12 1023.9 1004.5
14 18.09 СВ 2
{3}
30 км н/о +14.0 +9.2 73 +14 +14 1023.6 1004.2
15 18.09 СВ 2
{3}
30 км н/о +13.9 +9.3 74 +13 +13 1023.4 1004.0
16 18.09 С 1
{3}
40 км н/о +13.5 +8.8 73 +14 +14 1023.2 1003.8
17 18.09 СВ 2
{3}
45 км н/о +13.3 +8.9 75 +13 +13 1023.3 1003.9
18 18.09 Ю 1
{2}
40 км 10/10 1500 м
[Sc]
+12.9 +9.9 82 +13 +13 1023.6 1004.2 +16.4 1
19 18.09 З 1
{1}
40 км 10/10 1500 м
[Sc]
+12.7 +10.5 86 +13 +13 1024.0 1004.5
20 18.09 ЮЗ 1
{1}
40 км 10/10 1500 м
[Sc]
+12.6 +10.4 86 +13 +13 1024.0 1004.5
21 18.09 штиль 0
{1}
29 км н/о +12.4 +11.0 91 +12 +12 1023.9 1004.4
22 18.09 штиль 0
{1}
30 км н/о +12.4 +10.7 89 +12 +12 1023.8 1004.3
23 18.09 ЮВ 1
{1}
27 км н/о +12.4 +11.0 91 +12 +12 1023.9 1004.4
00 19.09 З 1
{2}
24 км н/о +12.2 +11.0 92 +12 +12 1023.8 1004.3
01 19.09 ЮВ 1
{1}
30 км н/о +12.2 +10.7 91 +12 +12 1023.5 1004.0
02 19.09 С 1
{1}
24 км н/о +12.0 +11.1 94 +12 +12 1023.4 1003.9
03 19.09 С 1
{1}
24 км н/о +11.9 +10.8 93 +12 +12 1023.4 1003.9
04 19.09 Ю 1
{2}
40 км 10/10 2000 м
[Sc]
+11.8 +10.5 92 +12 +12 1023.4 1003.9
05 19.09 СЗ 1
{1}
40 км 9/9 2000 м
[Sc]
+11.8 +10.9 94 +12 +12 1024.0 1004.5
06 19.09 В 1
{2}
40 км 9/9 2000 м
[Sc]
+12.4 +10.5 88 +12 +12 1024.6 1005.1 +11.5
07 19.09 В 1
{2}
50 км 9/9
[Sc]
+13.6 +9.8 78 +14 +14 1025.1 1005.7
08 19.09 В 3
{5}
50 км 6/0
[Ac trans Ci fib]
+15.4 +8.2 62 +15 +18 1025.1 1005.8
09 19.09 СВ 3
{5}
50 км 3/1 1200 м
[Cu hum Ac trans Ci fib]
+16.7 +8.0 56 +17 +22 1025.1 1005.9
10 19.09 СВ 5 50 км 4/3 1380 м
[Cu Sc Ac trans Ci fib]
+16.9 +5.4 47 +16 +20 1025.0 1005.8
11 19.09 СВ 5 50 км 3/1 1380 м
[Cu Sc Ac trans Ci fib]
+18.1 +5.5 43 +18 +22 1024.7 1005.6
12 19.09 СВ 5
{7}
50 км 4/3 1500 м
[Cu Sc Ac trans Ci fib]
+18.7 +5.6 42 +19 +22 1024.3 1005.2
13 19.09 СВ 5
{8}
50 км 5/3
[Cu Sc Ac trans Ci fib]
+19.0 +6.2 43 +19 +22 1024.1 1005.0
14 19.09 СВ 4
{8}
50 км 5/1 1500 м
[Cu hum Ac trans Ci fib]
+18.5 +5.6 43 +19 +21 1023.8 1004.7
15 19.09 СВ 5
{6}
50 км 4/1 1500 м
[Cu hum Ac trans Ci fib]
+18.1 +6.4 46 +18 +19 1024.0 1004.9
16 19.09 В 3
{6}
50 км 3/1 1500 м
[Cu hum Ci fib]
+17.1 +6.3 49 +17 +18 1024.3 1005.1
17 19.09 В 3
{5}
50 км 3/1
[Cu hum Ci fib]
+14.4 +6.7 60 +14 +14 1025.0 1005.6
18 19.09 В 2
{3}
50 км 1/0
[Ci fib]
+12.6 +7.4 71 +12 +12 1025.9 1006.4 +19.0
19 19.09 В 3
{4}
50 км 1/0
[Ci fib]
+11.3 +6.9 74 +10 +10 1026.4 1006.8
20 19.09 В 3
{4}
50 км 1/0
[Ci fib]
+11.0 +6.8 75 +9 +9 1027.4 1007.7
21 19.09 В 3
{4}
40 км н/о +11.3 +7.4 77 +10 +10 1028.0 1008.4
22 19.09 В 2
{3}
30 км н/о +10.6 +6.3 75 +9 +9 1028.3 1008.6
23 19.09 В 2
{3}
35 км н/о +9.8 +6.1 78 +8 +8 1028.8 1009.0
00 20.09 ЮЗ 1
{1}
29 км н/о +7.3 +5.9 91 +6 +6 1029.0 1009.1
01 20.09 З 1
{1}
21 км н/о +6.3 +5.5 95 +5 +5 1029.0 1009.0
02 20.09 Ю 1
{1}
30 км н/о +5.9 +4.8 93 +5 +5 1029.1 1009.0
03 20.09 З 1
{2}
30 км н/о +5.0 +4.2 95 +4 +4 1029.1 1009.0
04 20.09 штиль 0
{1}
50 км ясно +4.5 +3.9 96 +3 +3 1029.1 1008.9
05 20.09 З 1
{2}
50 км 1/0
[Ci fib]
+4.1 +3.6 97 +2 +2 1029.3 1009.1
06 20.09 ЮЗ 1
{1}
50 км 3/0
[Ci fib]
+6.1 +5.3 95 +5 +6 1029.4 1009.4 +4.0
08 20.09 ЮЗ 1
{2}
50 км 1/0
[Ci fib]
+12.8 +5.9 63 +13 +19 1029.5 1009.9
09 20.09 СВ 2
{4}
50 км 1/1 1300 м
[Cu hum Ci fib]
+14.4 +5.8 56 +14 +21 1029.1 1009.6
10 20.09 В 3
{6}
50 км 1/1 1380 м
[Cu hum Ci fib]
+15.6 +4.0 46 +15 +22 1028.5 1009.1
11 20.09 СВ 3
{6}
50 км 3/3 1380 м
[Cu hum Ci fib]
+16.0 +3.8 44 +16 +22 1028.1 1008.8
12 20.09 В 3
{7}
50 км 3/3 1500 м
[Cu hum Ci fib]
+16.9 +2.9 39 +17 +22 1027.6 1008.3
13 20.09 СВ 3
{5}
50 км 1/1 1500 м
[Cu hum Ci fib]
+17.1 +3.1 39 +17 +23 1027.2 1007.9
14 20.09 СВ 3
{6}
40 км н/о +17.3 +3.7 40 +17 +17 1026.8 1007.6
15 20.09 В 2
{6}
40 км н/о +17.6 +4.3 41 +18 +18 1026.6 1007.4
16 20.09 СВ 3
{4}
45 км н/о +16.4 +3.7 43 +16 +16 1026.8 1007.5
17 20.09 СВ 2
{2}
50 км н/о +14.3 +5.2 54 +14 +14 1026.9 1007.5
18 20.09 ЮВ 1
{2}
50 км ясно +10.8 +6.8 76 +11 +11 1027.8 1008.1 +18.4
19 20.09 ЮЗ 1
{2}
50 км ясно +8.3 +6.5 88 +7 +7 1028.3 1008.4
20 20.09 штиль 0
{2}
50 км ясно +7.5 +6.0 90 +7 +7 1028.4 1008.5
21 20.09 Ю 2
{2}
35 км н/о +6.8 +5.4 91 +4 +4 1028.5 1008.5
22 20.09 ЮЗ 1
{2}
8000 м дымка н/о +5.8 +4.8 93 +5 +5 1028.8 1008.7
23 20.09 ЮЗ 1
{2}
19 км н/о +5.2 +4.3 94 +4 +4 1028.9 1008.8
00 21.09 ЮЗ 1
{2}
19 км н/о +4.8 +4.0 95 +3 +3 1029.0 1008.9
01 21.09 ЮЗ 1
{1}
15 км н/о +4.9 +4.2 95 +3 +3 1028.9 1008.8
02 21.09 ЮЗ 1
{2}
17 км н/о +4.2 +3.5 95 +3 +3 1028.7 1008.5
03 21.09 ЮЗ 2
{2}
17 км н/о +4.9 +4.3 96 +2 +2 1028.5 1008.4
04 21.09 З 1
{2}
30 км 1/0
[Ci fib]
+4.3 +3.5 95 +3 +3 1028.6 1008.4
05 21.09 ЮЗ 2
{2}
30 км ясно +3.7 +3.1 96 +1 +1 1028.7 1008.5
06 21.09 З 2
{2}
30 км ясно +6.0 +5.1 94 +3 +4 1028.7 1008.7 +3.1
07 21.09 З 2
{3}
40 км ясно +8.4 +6.4 87 +6 +9 1028.9 1009.0
08 21.09 ЮЗ 2
{3}
40 км 1/0
[Ci fib]
+11.2 +7.3 77 +10 +15 1028.6 1008.9
09 21.09 Ю 1
{2}
40 км ясно +13.9 +6.6 61 +14 +23 1028.1 1008.6
10 21.09 В 1
{3}
50 км ясно +16.1 +7.1 55 +17 +28 1027.3 1008.0
11 21.09 В 3
{6}
50 км ясно +17.4 +5.1 44 +17 +26 1026.4 1007.2
12 21.09 В 4
{7}
50 км ясно +18.4 +5.7 43 +18 +25 1025.6 1006.5
13 21.09 В 4
{7}
35 км н/о +18.7 +5.7 42 +19 +19 1025.0 1005.9
14 21.09 В 4
{7}
35 км н/о +19.0 +6.7 45 +19 +19 1024.5 1005.4
15 21.09 ЮВ 1
{3}
35 км н/о +19.5 +5.8 41 +21 +21 комфорт 1023.9 1004.9
16 21.09 ЮВ 2
{3}
40 км н/о +18.7 +7.5 48 +20 +20 1023.6 1004.5
17 21.09 ЮВ 2
{4}
45 км н/о +15.2 +7.0 58 +15 +15 1023.5 1004.2
18 21.09 штиль 0
{2}
50 км ясно +11.4 +8.5 82 +11 +11 1024.0 1004.4 +20.0
19 21.09 З 1
{2}
50 км ясно +9.0 +7.4 90 +8 +8 1024.3 1004.6
20 21.09 Ю 1
{2}
30 км ясно +8.5 +7.2 92 +8 +8 1024.3 1004.5
21 21.09 штиль 0
{2}
15 км н/о +7.6 +6.7 94 +7 +7 1024.0 1004.2
22 21.09 З 1
{2}
17 км н/о +6.5 +5.7 95 +5 +5 1023.7 1003.8
23 21.09 ЮЗ 1
{1}
8000 м дымка н/о +6.5 +5.5 93 +5 +5 1023.0 1003.1
00 22.09 З 1
{2}
2600 м дымка н/о +5.5 +4.9 96 +4 +4 1023.1 1003.1
01 22.09 дымка н/о
02 22.09 штиль 0
{1}
3000 м дымка н/о +5.1 +4.7 97 +4 +4 1022.3 1002.3
03 22.09 ЮЗ 1
{1}
10 км дымка н/о +4.8 +4.3 97 +3 +3 1021.7 1001.7
04 22.09 штиль 0
{2}
20 км ясно +3.8 +3.3 97 +3 +3 1021.6 1001.5

 

Местоположение метеостанции Церки-об-Крки (Словения): широта 45.90 долгота 15.52 высота над уровнем моря 154 м.

В архиве по умолчанию представлена погода в Церки-об-Крки за последнюю неделю. Архивные данные за месяц целиком и за предыдущие месяцы, начиная с января 2011 года, Вы можете получить, выбрав интересующий диапазон дат из раскрывающегося списка и нажав кнопку "Ввод!".


*Определитесь, кто Вы:
робот инопланетянин человек

Внимание! Время в таблицах - всемирное. Для получения местного времени необходимо прибавить поправку, которая равна 1 ч.

Смотрите также архив погоды в соседних городах и на ближайших метеорологических станциях:

Погода на Лиске (Словения) (26 км)
Погода в Ново-Месте (Словения) (29 км)
Погода в Пунтиярке (Хорватия) (35 км)
Погода в Загреб-Градеце (Хорватия) (37 км)
Погода в Крапине (Хорватия) (38 км)
Погода в Загребе (Хорватия) (40 км)
Погода в Целе (Словения) (44 км)
Погода в Карловаце (Хорватия) (45 км)
Погода в Чрномеле (Словения) (47 км)
Погода в Загреб аэропорту (Хорватия) (47 км)

Пояснения к столбцам:

Ветер - указаны скорость ветра в м/с - средняя за 10 мин, порывы в срок и между сроками (в фигурных скобках) и направление, откуда дует ветер: С - северный, СВ - северо-восточный, В - восточный, ЮВ - юго-восточный, Ю - южный, ЮЗ - юго-западный, З - западный, СЗ - северо-западный.
Видимость - горизонтальная дальность видимости в метрах или километрах. При видимости от 1 до 10 км при отсутствии осадков обычно наблюдается дымка, при ухудшении видимости до 1 км и менее - туман. В сухую погоду видимость может ухудшаться дымом, пылью или мглою.
Явления - указаны атмосферные явления, наблюдавшиеся в срок или в последний час перед сроком; фигурными скобками обозначены явления, наблюдавшиеся между сроками (за 1-3 часа до срока); квадратными скобками обозначены град или гололедные отложения с указанием их диаметра в мм.
Облачность - указаны через наклонную черту общая и нижняя облачность в баллах и высота нижней границы облаков в метрах; квадратными скобками обозначены формы облаков: Ci - перистые, Cs - перисто-слоистые, Cc - перисто-кучевые, Ac - высококучевые, As - высокослоистые, Sc - слоисто-кучевые, Ns - слоисто-дождевые, Cu - кучевые, Cb - кучево-дождевые. Подробнее классификацию облаков см. в Атласе облаков (PDF).
T - Температура воздуха - температура, измеренная на высоте 2 м над землей.
Td - Температура точки росы - температура, при понижении до которой содержащийся в воздухе водяной пар достигнет насыщения.
f - Относительная влажность воздуха - влажноcть воздуха, измеренная на высоте 2 м над землей.
Te - Эффективная температура - температура, которую ощущает одетый по сезону человек в тени. Характеристика душности погоды. При расчете учитывается влияние влажности воздуха и скорости ветра на теплоощущения человека.
Tes - Эффективная температура на солнце - температура, которую ощущает человек, с поправкой на солнечный нагрев. Характеристика знойности погоды. Зависит от высоты солнца над горизонтом, облачности и скорости ветра. Ночью, в пасмурную погоду, а также при ветре 12 м/с и более поправка равна нулю.
P - Атмосферное давление - приведенное к уровню моря атмосферное давление.
Po - Атмосферное давление - измеренное на уровне метеостанции атмосферное давление.
Tmin - Минимальная температура - минимум температуры воздуха на высоте 2 м над землей.
Tmax - Максимальная температура - максимум температуры воздуха на высоте 2 м над землей.
R - Количество осадков - Количество выпавших осадков за период времени, мм. При наведении курсора мыши на число - период времени, за который выпало указанное количество осадков.
R24 - Количество осадков - Количество выпавших осадков за 24 часа, мм.
S - Снежный покров - Высота снежного покрова, см. При наведении курсора мыши на число - состояние снежного покрова и степень покрытия местности в баллах.